GW2905 Weather Reports


Display with metric or nautical units.
time (UTC)temp
F
wind
direction
speed
MPH
gust
MPH
rain 1hr
in
rain 24hr
in
rain mn
in
humidity
%
barometer
mb
20260904193058 60 0 1.0 3.0 0.00 0.09 0.06 84 1012.7
20260904191602 60 163 0.0 3.0 0.00 0.09 0.06 85 1012.7
20260904190058 60 86 0.0 3.0 0.00 0.09 0.06 82 1012.8
20260904184600 60 0 0.0 3.0 0.00 0.09 0.06 87 1012.9
20260904183101 60 0 0.0 3.0 0.00 0.09 0.06 81 1012.7
20260904181558 60 286 0.0 3.0 0.00 0.09 0.06 84 1012.5
20260904180114 59 140 0.0 4.0 0.00 0.09 0.06 87 1012.4
20260904174609 57 0 0.0 3.0 0.00 0.09 0.06 92 1012.4
20260904173105 56 0 0.0 2.0 0.00 0.09 0.06 93 1012.4
20260904171604 55 279 0.0 2.0 0.00 0.09 0.06 93 1012.3
20260904164600 55 0 0.0 3.0 0.00 0.16 0.06 93 1012.0
20260904163058 55 0 0.0 2.0 0.00 0.16 0.06 95 1011.8
20260904161603 55 52 0.0 2.0 0.00 0.16 0.06 95 1011.9
20260904160100 54 0 0.0 2.0 0.00 0.16 0.06 96 1011.9
20260904154557 53 0 0.0 2.0 0.00 0.18 0.06 96 1011.9
20260904153119 53 0 0.0 2.0 0.00 0.18 0.06 96 1011.9
20260904151559 53 0 0.0 2.0 0.00 0.18 0.06 96 1011.7
20260904150101 52 0 0.0 1.0 0.00 0.18 0.06 96 1011.5
20260904144558 52 55 0.0 1.0 0.00 0.18 0.06 96 1011.2
20260904143103 52 0 0.0 2.0 0.00 0.18 0.06 95 1011.1
20260904141604 52 0 0.0 4.0 0.00 0.18 0.06 95 1011.1
20260904140101 52 47 0.0 2.0 0.00 0.18 0.06 95 1011.0
20260904134601 52 0 0.0 3.0 0.00 0.23 0.06 95 1010.9
20260904133101 52 0 0.0 3.0 0.02 0.23 0.06 95 1010.6
20260904131634 52 0 0.0 2.0 0.04 0.23 0.06 95 1010.7
20260904130058 52 0 0.0 2.0 0.05 0.23 0.06 95 1010.6
20260904124559 52 0 0.0 1.0 0.06 0.25 0.06 94 1010.6
20260904123106 52 0 0.0 1.0 0.04 0.23 0.04 95 1010.5
20260904121601 53 0 0.0 1.0 0.02 0.21 0.02 94 1010.4
20260904120104 53 0 0.0 2.0 0.01 0.20 0.01 94 1010.3
20260904114559 53 0 0.0 3.0 0.00 0.19 0.00 94 1010.2
20260904113105 53 308 0.0 1.0 0.00 0.19 0.00 94 1010.1
20260904111614 53 0 0.0 3.0 0.00 0.19 0.00 94 1009.8
20260904110101 53 0 0.0 2.0 0.00 0.19 0.00 93 1009.8
20260904104606 53 0 0.0 1.0 0.00 0.19 0.00 93 1009.7
20260904103109 53 0 0.0 2.0 0.00 0.19 0.00 93 1009.7
20260904101557 53 0 0.0 1.0 0.00 0.19 0.00 93 1009.6
20260904094600 53 0 0.0 1.0 0.00 0.19 0.00 91 1009.5
20260904093055 54 0 0.0 1.0 0.00 0.19 0.00 90 1009.5
20260904091607 54 0 0.0 1.0 0.00 0.19 0.00 89 1009.5
20260904084602 55 0 0.0 3.0 0.00 0.19 0.00 81 1009.4
20260904083112 55 0 0.0 2.0 0.00 0.19 0.00 80 1009.5
20260904081601 55 0 0.0 2.0 0.00 0.19 0.00 81 1009.5
20260904080109 55 248 0.0 2.0 0.00 0.19 0.00 82 1009.4
20260904074611 55 0 0.0 2.0 0.00 0.19 0.00 83 1009.5
20260904073104 55 286 0.0 2.0 0.00 0.19 0.00 83 1009.5
20260904071605 55 301 0.0 2.0 0.00 0.19 0.00 84 1009.4
20260904070129 55 0 0.0 3.0 0.00 0.19 0.00 80 1009.3
20260904064558 55 197 0.0 3.0 0.00 0.19 0.19 81 1009.4
20260904063106 55 333 1.0 4.0 0.00 0.19 0.19 81 1009.5
20260904061558 54 0 0.0 2.0 0.00 0.19 0.19 82 1009.4
20260904060104 53 0 0.0 2.0 0.00 0.19 0.19 87 1009.4
20260904054558 53 0 0.0 2.0 0.00 0.19 0.19 88 1009.5
20260904053102 54 244 0.0 1.0 0.00 0.19 0.19 86 1009.5
20260904051609 55 221 0.0 2.0 0.00 0.19 0.19 85 1009.6
20260904044606 55 0 0.0 2.0 0.00 0.19 0.19 85 1009.7
20260904043103 55 0 0.0 0.0 0.00 0.19 0.19 86 1009.6
20260904041612 55 0 0.0 1.0 0.00 0.19 0.19 87 1009.8
20260904040112 55 0 0.0 2.0 0.00 0.19 0.19 87 1009.8
20260904034611 55 0 0.0 2.0 0.00 0.19 0.19 85 1009.6
20260904033104 55 0 0.0 2.0 0.00 0.19 0.19 85 1009.4
20260904031603 55 0 0.0 2.0 0.00 0.19 0.19 84 1009.2
20260904024609 55 0 0.0 1.0 0.00 0.19 0.19 85 1008.9
20260904023103 55 0 0.0 1.0 0.00 0.19 0.19 83 1008.9
20260904021606 56 51 0.0 2.0 0.00 0.19 0.19 82 1009.0
20260904020054 57 0 0.0 6.0 0.00 0.19 0.19 79 1008.8
20260904014638 57 198 1.0 6.0 0.00 0.19 0.19 79 1009.0
20260904013056 57 0 2.0 6.0 0.00 0.19 0.19 77 1008.9
20260904011626 57 0 0.0 3.0 0.00 0.19 0.19 78 1008.9
20260904010108 57 99 1.0 4.0 0.00 0.19 0.19 79 1009.0
20260904004604 56 51 1.0 4.0 0.00 0.19 0.19 81 1008.8
20260904003103 56 96 0.0 6.0 0.00 0.19 0.19 76 1009.0
20260904001555 57 115 2.0 8.0 0.01 0.19 0.19 75 1009.1
20260903234600 56 140 0.0 3.0 0.01 0.20 0.19 83 1009.0
20260903233114 55 0 0.0 5.0 0.01 0.20 0.19 83 1009.1
20260903231604 55 0 0.0 8.0 0.00 0.19 0.18 82 1009.2
20260903230059 56 110 2.0 10.0 0.00 0.19 0.18 81 1009.4
20260903224556 56 207 2.0 8.0 0.00 0.22 0.18 78 1009.6
20260903223113 55 0 2.0 8.0 0.01 0.22 0.18 80 1009.4
20260903221600 55 146 0.0 3.0 0.01 0.22 0.18 83 1009.4
20260903220127 55 214 1.0 8.0 0.01 0.22 0.18 83 1009.5
20260903214558 56 175 1.0 8.0 0.02 0.23 0.18 83 1009.5
20260903213101 55 221 1.0 7.0 0.01 0.22 0.17 88 1009.7
20260903211600 54 207 0.0 3.0 0.01 0.22 0.17 87 1009.6
20260903210111 54 230 0.0 6.0 0.01 0.22 0.17 88 1009.5
20260903204600 56 180 2.0 6.0 0.00 0.22 0.16 84 1009.3
20260903203109 58 87 3.0 11.0 0.00 0.22 0.16 79 1009.1
20260903201602 58 166 3.0 10.0 0.00 0.22 0.16 76 1009.3
20260903200058 59 119 5.0 14.0 0.00 0.22 0.16 75 1009.3
20260903194600 59 94 4.0 11.0 0.00 0.30 0.16 77 1009.1